Regional Weather Roundup
Issued by NWS

Home | Current Version | Previous Version | Graphics & Text | Print | Product List | Glossary On
Versions: 1 2 3 4 5 6 7 8 9 10 11 12 13 14 15 16 17 18 19 20 21 22 23 24 25 26 27 28 29 30 31 32 33 34 35 36 37 38 39 40 41 42 43 44 45 46 47 48 49 50
000
ASUS45 KBOI 011210
RWRID

IDAHO REGIONAL WEATHER ROUNDUP
NATIONAL WEATHER SERVICE BOISE ID
600 AM MDT WED JUL 01 2015

NOTE: "FAIR" INDICATES FEW OR NO CLOUDS BELOW 12000 FEET
WITH NO SIGNIFICANT WEATHER AND/OR OBSTRUCTIONS TO VISIBILITY

IDZ012-014-011300-
SOUTHWEST IDAHO


CITY           SKY/WX    TMP DP  RH WIND       PRES   REMARKS
BOISE          CLEAR     71  52  50 NW3       29.99S
CALDWELL       CLEAR     68  46  45 W8        29.99S
MOUNTAIN HOME  PTCLDY    72  48  42 NW9       29.98S
$$

IDZ016-017-011300-
SOUTHCENTRAL IDAHO


CITY           SKY/WX    TMP DP  RH WIND       PRES   REMARKS
BURLEY         PTCLDY    65  57  75 CALM      30.06R
JEROME         PTCLDY    71  52  50 SW6       30.05S
TWIN FALLS     PTCLDY    73  50  44 S14       30.04R
$$

IDZ019>023-011300-
SOUTHEAST IDAHO


CITY           SKY/WX    TMP DP  RH WIND       PRES   REMARKS
IDAHO FALLS    MOCLDY    59  56  89 S3        30.10S
POCATELLO      CLEAR     62  55  77 S7        30.09S
REXBURG        MOCLDY    59  54  83 NE5       30.11S
$$

IDZ006-010-011-018-031-032-011300-
CENTRAL IDAHO MOUNTAINS


CITY           SKY/WX    TMP DP  RH WIND       PRES   REMARKS
MCCALL         CLEAR     57  50  77 CALM      30.14S
HAILEY         CLEAR     61  45  55 NW13      30.16S
STANLEY          N/A     43  36  76 CALM      30.29S
SALMON         CLEAR     57  50  77 CALM      30.11R
CHALLIS        CLEAR     63  45  51 SE5       30.16R
$$

IDZ002-004-006-007-026-011300-
NORTHERN IDAHO


CITY           SKY/WX    TMP DP  RH WIND       PRES   REMARKS
LEWISTON       CLEAR     71  47  42 S3        29.96R
LOWELL           N/A     63  56  78 N3        30.03R
COEUR D`ALENE  CLEAR     61  52  72 NE8       29.98S
MULLAN PASS    CLEAR     64  40  41 CALM      30.21S
$$



USA.gov is the U.S. government's official web portal to all federal, state and local government web resources and services.